Tracking 19909 objects as of 21-Oct-2019
HD Live streaming from Space Station
objects crossing your sky now

YZ-1 R/B

Track YZ-1 R/B now!


NORAD ID: 43248
Int'l Code: 2018-029D
Perigee: 22,145.1 km
Apogee: 22,691.8 km
Inclination: 55.5 °
Period: 810.2 minutes
Semi major axis: 28789 km
RCS: Unknown
Launch date: March 29, 2018
Source: People's Republic of China (PRC)
Launch site: Xichang Space Center, China (XSC)

Note: This is a ROCKET BODY
aabbcc
Your satellite tracking list
Your tracking list is empty




NASA's NSSDC Master Catalog

Two Line Element Set (TLE):
1 43248U 18029D   19289.92539738 -.00000068 +00000-0 +00000-0 0  9991
2 43248 055.5199 025.8510 0094939 355.3683 004.5715 01.77726797010067
Source of the keplerian elements: AFSPC